Regional Weather Roundup
Issued by NWS Bismarck, ND

Home | Current Version | Previous Version | Text Only | Print | Product List | Glossary On
Versions: 1 2 3 4 5 6 7 8 9 10 11 12 13 14 15 16 17 18 19 20 21 22 23 24 25 26 27 28 29 30 31 32 33 34 35 36 37 38 39 40 41 42 43 44 45 46 47 48 49 50
000
ASUS43 KBIS 251459
RWRBIS

NWR BROADCAST TEXT
NATIONAL WEATHER SERVICE BISMARCK ND
1000 AM CDT SAT OCT 25 2014

NOTE: "FAIR" INDICATES FEW OR NO CLOUDS BELOW 12,000 FEET WITH NO
SIGNIFICANT WEATHER AND/OR OBSTRUCTIONS TO VISIBILITY.


CITY           SKY/WX    TMP DP  RH WIND       PRES   REMARKS
WILLISTON      PTSUNNY   43  33  68 CALM      30.13S
MINOT          MOSUNNY   44  30  57 SW6       30.13R
MINOT AFB      NOT AVBL
BISMARCK       MOSUNNY   47  34  60 S3        30.18R
DICKINSON      NOT AVBL
GARRISON         N/A     44  32  62 CALM      30.14R
HETTINGER ARPT SUNNY     41  33  73 CALM      30.16S
JAMESTOWN      NOT AVBL
CARRINGTON     FAIR      45  36  70 W13       30.14R
$$

CITY           SKY/WX    TMP DP  RH WIND       PRES   REMARKS
GRAND FORKS    MOSUNNY   49  32  52 NW15      30.07R
GRAND FORKS AF NOT AVBL
DEVILS LAKE    SUNNY     45  32  61 W13       30.09R
FARGO          MOSUNNY   49  33  54 W15       30.10R
GWINNER        PTSUNNY   50  32  50 NW10      30.14R
$$

CITY           SKY/WX    TMP DP  RH WIND       PRES   REMARKS
ABERDEEN       MOSUNNY   53  36  52 NW5       30.16R
MOBRIDGE       SUNNY     51  38  60 NW3       30.15R
RAPID CITY     SUNNY     48  34  58 S5        30.17S
GLASGOW        MOSUNNY   45  32  60 E8        30.06F
SIDNEY         MOSUNNY   43  34  70 CALM      30.14S
WOLF POINT     PTSUNNY   41  34  76 E5        30.10F
GLENDIVE       SUNNY     45  34  65 CALM      30.13S
MILES CITY     SUNNY     43  33  68 NE6       30.08F
BAKER          SUNNY     43  33  68 E7        30.13F
$$

CITY           SKY/WX    TMP DP  RH WIND       PRES   REMARKS
BILLINGS       MOSUNNY   37  32  82 S9        30.04F
GREAT FALLS    CLEAR     38  37  97 CALM      29.94F
$$




USA.gov is the U.S. government's official web portal to all federal, state and local government web resources and services.